Temp
-3 -4 -4 -3 -3 -3 -3 -4 -4 -3 -3 -3 -3 -3 -3 -3 -3 -3 -3 -3 -4 -3 -3 -2 -1 -1 -0 -1 -1 0 0 -0 -1 0 1 1 0 2 2 3 2 3 2 3 4 4 4 5 7 6 4 2 2 1
-4 -4 -3 -3 -3 -3 -4 -4 -3 -3 -4 -4 -4 -4 -4 -4 -4 -4 -4 -4 -4 -3 -3 -2 -1 -1 -1 0 0 1 1 1 0 -0 -1 -1 0 -1 1 2 2 2 2 2 3 3 3 4 4 4 4 1 -0 1
-4 -4 -4 -3 -3 -3 -3 -4 -4 -4 -4 -4 -4 -3 -3 -3 -3 -3 -4 -4 -4 -3 -3 -2 -2 -2 -1 -0 0 1 1 1 2 0 -1 -0 -1 -0 2 1 2 2 3 2 3 3 1 1 1 2 2 2 0 1
-4 -4 -4 -4 -4 -4 -4 -4 -4 -4 -3 -2 -2 -2 -2 -2 -2 -2 -3 -4 -3 -3 -3 -1 -1 -1 -0 -0 -0 0 0 1 -0 0 -0 -0 -0 1 1 2 1 1 2 2 1 1 1 0 -0 0 0 0 0 0
-4 -4 -4 -4 -4 -4 -4 -3 -2 -2 -2 -2 -2 -2 -2 -2 -1 -2 -3 -3 -3 -2 -2 -1 -0 0 1 0 0 -0 0 -0 1 -1 0 1 0 1 0 0 1 3 2 2 1 2 2 -0 -1 -0 1 -0 -1 -0
-4 -4 -4 -4 -4 -3 -2 -2 -2 -2 -2 -2 -2 -2 -1 -2 -2 -2 -3 -3 -3 -3 -2 -1 -0 0 1 0 -0 1 0 -0 0 1 0 0 1 1 1 -0 2 4 4 4 1 3 2 0 -0 0 0 -2 -1 -1
-4 -4 -5 -4 -3 -3 -2 -2 -2 -2 -2 -1 -1 -1 -1 -1 -2 -2 -1 -0 -3 -3 -3 -1 -1 -0 -0 -1 -1 -0 0 -0 0 0 0 1 0 1 0 2 3 3 4 3 4 2 -1 -1 -2 -1 -1 -2 -2 -3
-4 -5 -3 -3 -3 -2 -2 -2 -2 -2 -1 -1 -1 -0 -0 -1 -2 -2 0 2 -2 -2 -2 -1 -1 -0 -0 -0 -1 -0 -0 -0 -0 1 -0 -0 0 0 -0 1 2 1 1 1 1 3 1 -0 -1 -2 -2 -2 -3 -5
-4 -3 -2 -2 -3 -2 -2 -2 -2 -1 -1 -1 -1 -1 -1 -1 -2 -1 -0 -2 -3 -2 -1 -2 -1 -2 -0 -1 -1 -1 -0 -0 -1 -1 0 -0 -1 1 1 1 1 0 0 -1 -0 1 -1 -1 -2 -3 -3 -3 -3 -5
-3 -2 -2 -3 -2 -2 -2 -2 -2 -1 -1 -1 -1 -1 -1 -1 -1 -1 -1 -1 -1 -1 -1 -4 -1 -1 -0 -1 -1 -1 -1 -2 -2 -1 -1 -0 -0 1 2 2 1 0 1 1 -2 -4 -4 -3 -3 -3 -2 -3 -3 -4
-2 -2 -3 -2 -2 -2 -2 -2 -2 -1 -1 -0 -0 -1 -1 -1 -1 -1 -1 -1 -1 -1 -1 -1 -1 -0 -0 -1 -1 -0 -1 -2 -1 -0 -0 0 0 -0 0 0 -0 0 1 -0 2 0 -0 1 -1 -2 -3 -4 -4 -5
-3 -3 -2 -3 -2 -2 -1 -2 -1 -1 -1 -1 -1 -1 -1 -1 -1 -2 -1 -1 -1 -0 -2 -1 -1 -1 -1 -0 -0 -1 0 -1 1 -1 -1 0 -2 -1 -1 -1 -1 -2 -1 -0 1 0 -0 -0 -1 -2 -3 -4 -5 -5
-3 -3 -2 -2 -1 -2 -1 -1 -1 -1 -1 0 1 1 0 -1 -4 -2 -1 -1 -0 -1 -1 -1 -1 -1 -1 -0 -2 -1 -1 -0 -0 -2 0 -1 -2 -2 -2 -1 -2 -1 -0 0 -0 -1 -0 -1 -2 -2 -3 -4 -5 -5
-3 -2 -2 -2 -1 -0 -1 -0 1 1 1 2 -0 -2 -3 -3 -1 -1 -0 -0 -1 -1 -1 -0 -2 -0 0 -1 -2 -0 -2 -2 -3 -2 -1 -3 -3 -2 -2 -2 -1 -1 -0 -0 -1 -1 -1 -1 -3 -3 -4 -4 -5 -5
-2 -2 -2 -1 0 1 0 1 1 2 1 -1 -1 -1 -2 -2 -2 -2 -1 -1 -1 0 1 0 -0 1 -2 -2 -1 -2 -3 -2 -2 -2 -3 -3 -3 -2 -2 -1 -0 -1 -1 -1 -1 -2 -2 -3 -3 -4 -5 -5 -6 -6
-2 -2 -1 1 1 1 1 1 2 1 -1 -1 -2 -1 -1 -1 -1 -1 -0 -0 1 2 2 2 -0 -1 -1 -1 -0 -1 -1 -3 -4 -5 -3 -3 -3 -2 -1 -1 -1 -1 -1 -1 -2 -2 -2 -3 -3 -4 -5 -6 -7 -7
-1 -0 0 0 -0 0 1 1 0 -2 -2 -2 -3 -3 -2 -2 -3 -3 -1 0 2 3 -3 -2 -1 0 -2 -1 -0 -1 -2 -3 -3 -4 -4 -4 -2 -1 -1 -1 -1 -1 -1 -2 -2 -3 -3 -4 -4 -5 -5 -7 -8 -8
-0 0 0 1 1 0 0 -1 -2 -2 -3 -4 -3 -4 -3 -3 -2 -1 -0 1 2 2 1 -0 -0 -0 -2 -1 -4 -3 -5 -6 -5 -5 -5 -4 -2 -2 -1 -1 -1 -1 -2 -2 -3 -3 -4 -4 -4 -5 -7 -8 -9 -10
0 0 1 1 1 1 -1 -1 -2 -4 -4 -4 -3 -3 -2 -2 -2 -1 0 1 2 1 0 -2 -3 -2 -3 -3 -3 -4 -5 -5 -7 -7 -6 -5 -2 -1 -1 -1 -2 -2 -3 -3 -4 -4 -4 -5 -5 -6 -7 -7 -8 -9
0 0 0 1 1 0 -2 -2 -2 -3 -4 -3 -2 -2 -2 -2 -2 -1 -0 0 -0 -2 -4 -4 -4 -5 -5 -4 -4 -4 -4 -5 -5 -7 -7 -5 -3 -2 -2 -2 -2 -3 -4 -4 -5 -5 -5 -6 -7 -7 -7 -7 -8 -8
0 0 1 1 -0 -1 -3 -3 -3 -3 -2 -2 -2 -2 -2 -2 -3 -3 -3 -2 -3 -4 -5 -5 -5 -5 -4 -4 -4 -4 -4 -4 -4 -3 -5 -6 -5 -4 -3 -4 -4 -4 -4 -4 -5 -6 -6 -6 -6 -7 -8 -8 -9 -9
0 1 1 -0 -1 -2 -2 -3 -3 -3 -2 -3 -2 -3 -4 -6 -4 -4 -3 -5 -5 -6 -5 -5 -5 -5 -4 -4 -4 -4 -4 -4 -3 -3 -3 -3 -4 -4 -5 -4 -5 -4 -4 -4 -5 -5 -6 -7 -7 -8 -8 -9 -10 -10
1 1 -0 -1 -1 -2 -3 -2 -2 -3 -6 -6 -3 -5 -7 -6 -3 -3 -6 -5 -6 -6 -6 -6 -6 -5 -5 -5 -5 -5 -5 -4 -4 -4 -4 -4 -4 -5 -5 -5 -5 -5 -5 -5 -6 -6 -6 -7 -8 -8 -9 -10 -11 -11
1 -1 -2 -3 -2 -7 -3 -3 -3 -3 -3 -5 -6 -7 -6 -5 -2 -4 -6 -6 -6 -6 -6 -6 -6 -6 -6 -6 -5 -5 -5 -5 -5 -5 -6 -5 -5 -6 -6 -6 -6 -6 -6 -6 -6 -7 -7 -8 -8 -9 -10 -10 -11 -11
-1 -5 -3 -9 -4 -7 -9 -10 -8 -6 -8 -8 -8 -9 -9 -4 -8 -8 -7 -8 -8 -8 -7 -6 -6 -6 -6 -5 -6 -6 -5 -5 -5 -5 -6 -6 -6 -7 -7 -7 -7 -7 -7 -7 -7 -7 -8 -9 -9 -10 -10 -10 -11 -11
-9 -5 -7 -7 -8 -8 -9 -9 -10 -9 -11 -10 -8 -6 -5 -11 -11 -8 -9 -9 -9 -9 -8 -8 -7 -6 -6 -6 -5 -5 -6 -5 -5 -5 -5 -6 -6 -7 -7 -7 -6 -7 -7 -7 -7 -7 -8 -8 -9 -10 -10 -11 -11 -11
-10 -9 -4 -4 -4 -4 -8 -6 -6 -9 -11 -10 -11 -11 -13 -14 -13 -11 -11 -10 -10 -10 -9 -9 -8 -7 -7 -7 -6 -6 -6 -6 -6 -6 -6 -6 -6 -7 -7 -6 -6 -6 -7 -7 -7 -8 -8 -8 -9 -10 -10 -10 -11 -11
-5 -6 -10 -6 -6 -6 -10 -13 -10 -9 -10 -7 -8 -13 -15 -14 -14 -13 -12 -11 -10 -10 -10 -9 -9 -8 -8 -8 -7 -7 -7 -6 -6 -6 -6 -6 -6 -6 -7 -7 -7 -8 -8 -8 -8 -8 -9 -9 -9 -10 -10 -10 -11 -11
-6 -6 -6 -11 -9 -9 -11 -12 -11 -8 -8 -7 -16 -17 -16 -16 -15 -13 -12 -11 -10 -10 -9 -9 -9 -9 -9 -8 -8 -8 -7 -7 -7 -7 -7 -7 -6 -6 -7 -7 -7 -7 -8 -8 -8 -9 -9 -9 -9 -9 -10 -10 -10 -11
-7 -7 -8 -12 -15 -12 -10 -9 -9 -9 -9 -10 -12 -15 -15 -16 -16 -14 -13 -12 -11 -10 -10 -10 -10 -10 -9 -9 -9 -9 -9 -9 -8 -8 -8 -7 -7 -7 -7 -7 -7 -7 -8 -8 -8 -9 -9 -9 -9 -9 -10 -10 -11 -11
-7 -6 -8 -10 -12 -9 -9 -9 -9 -9 -10 -12 -12 -13 -15 -16 -15 -15 -14 -13 -13 -12 -12 -11 -11 -10 -10 -10 -10 -10 -10 -10 -9 -9 -9 -9 -8 -8 -8 -8 -8 -8 -8 -8 -8 -9 -9 -9 -10 -10 -10 -11 -11 -12
-7 -8 -9 -11 -10 -9 -8 -8 -8 -9 -10 -12 -13 -14 -14 -15 -16 -16 -15 -14 -14 -13 -12 -12 -12 -11 -11 -11 -11 -11 -11 -11 -10 -10 -10 -9 -9 -9 -9 -9 -9 -9 -9 -9 -9 -9 -9 -9 -10 -10 -11 -11 -12 -13
-8 -8 -9 -9 -9 -8 -8 -8 -9 -11 -11 -11 -12 -13 -15 -16 -18 -17 -17 -16 -15 -14 -14 -13 -13 -13 -13 -12 -12 -12 -11 -11 -11 -11 -10 -10 -10 -10 -10 -10 -10 -10 -10 -10 -10 -10 -10 -11 -11 -11 -11 -12 -12 -13
Height
1358 1360 1362 1364 1366 1368 1370 1372 1374 1376 1378 1381 1384 1387 1391 1396 1402 1408 1411 1416 1419 1422 1424 1426 1431 1434 1437 1441 1446 1446 1451 1449 1451 1452 1445 1442 1445 1440 1440 1438 1441 1442 1447 1446 1446 1447 1442 1425 1426 1429 1425 1427 1427 1430
1354 1356 1357 1359 1360 1361 1362 1363 1364 1366 1367 1369 1370 1373 1377 1382 1390 1398 1403 1408 1415 1417 1416 1419 1419 1425 1429 1434 1439 1440 1437 1437 1440 1438 1436 1435 1440 1442 1438 1439 1434 1440 1433 1437 1437 1433 1426 1424 1423 1421 1421 1423 1430 1430
1349 1351 1352 1353 1354 1354 1354 1354 1354 1354 1353 1353 1353 1355 1359 1365 1373 1383 1390 1401 1408 1412 1412 1414 1410 1414 1422 1426 1430 1432 1431 1435 1434 1434 1431 1429 1435 1432 1432 1436 1431 1429 1426 1428 1430 1428 1427 1424 1425 1424 1425 1425 1431 1435
1345 1346 1346 1347 1346 1345 1344 1342 1340 1338 1338 1339 1341 1344 1347 1351 1355 1366 1376 1388 1398 1405 1407 1400 1402 1408 1412 1417 1420 1424 1428 1431 1431 1434 1431 1429 1431 1426 1427 1424 1429 1427 1425 1425 1429 1429 1427 1427 1429 1427 1427 1432 1436 1440
1340 1340 1340 1339 1338 1335 1331 1329 1328 1328 1329 1329 1331 1334 1338 1344 1349 1357 1369 1376 1387 1396 1394 1396 1397 1397 1402 1408 1411 1418 1422 1427 1429 1433 1427 1425 1424 1425 1424 1425 1422 1416 1418 1421 1420 1416 1419 1427 1429 1431 1430 1436 1441 1441
1335 1335 1334 1332 1328 1325 1324 1323 1321 1319 1317 1316 1317 1320 1327 1336 1347 1352 1362 1373 1376 1388 1393 1390 1389 1389 1393 1398 1404 1410 1415 1421 1425 1426 1425 1419 1419 1422 1422 1421 1407 1405 1406 1407 1409 1414 1418 1425 1432 1433 1435 1439 1443 1445
1330 1329 1327 1323 1322 1322 1320 1316 1313 1311 1307 1305 1305 1305 1314 1327 1336 1345 1349 1352 1367 1386 1392 1397 1388 1385 1389 1396 1404 1409 1412 1415 1419 1421 1420 1420 1420 1420 1417 1409 1404 1404 1403 1405 1406 1413 1424 1426 1429 1434 1437 1442 1446 1450
1326 1323 1320 1320 1320 1319 1315 1311 1309 1306 1303 1302 1299 1299 1304 1321 1337 1344 1347 1348 1360 1378 1388 1383 1383 1385 1389 1392 1398 1401 1403 1409 1411 1412 1414 1415 1417 1416 1410 1400 1402 1402 1403 1407 1407 1410 1415 1423 1430 1435 1440 1443 1447 1451
1320 1318 1318 1319 1319 1318 1313 1311 1307 1306 1305 1304 1304 1307 1312 1322 1332 1340 1349 1356 1366 1375 1370 1372 1375 1384 1384 1388 1393 1397 1401 1406 1407 1405 1406 1411 1408 1402 1395 1395 1396 1397 1400 1404 1410 1412 1418 1423 1430 1436 1441 1445 1447 1452
1316 1317 1318 1319 1319 1317 1312 1309 1307 1306 1306 1305 1305 1310 1316 1324 1333 1346 1359 1362 1366 1368 1369 1369 1370 1374 1380 1384 1390 1395 1397 1400 1404 1401 1402 1402 1396 1391 1390 1391 1394 1398 1399 1403 1407 1417 1421 1425 1430 1436 1441 1446 1449 1451
1316 1317 1319 1320 1319 1316 1313 1310 1308 1307 1307 1308 1310 1315 1324 1331 1338 1346 1350 1356 1360 1363 1363 1365 1367 1370 1378 1382 1386 1389 1394 1395 1396 1395 1397 1395 1389 1389 1389 1390 1394 1398 1401 1406 1406 1411 1415 1417 1426 1434 1441 1446 1450 1452
1318 1319 1321 1321 1321 1319 1316 1314 1313 1311 1311 1315 1316 1323 1329 1334 1339 1344 1348 1353 1353 1357 1359 1360 1364 1369 1375 1378 1382 1388 1387 1391 1387 1392 1394 1388 1387 1386 1389 1392 1395 1398 1402 1406 1410 1412 1418 1424 1430 1435 1441 1446 1450 1453
1319 1321 1322 1323 1322 1321 1320 1319 1321 1319 1319 1321 1325 1327 1330 1334 1342 1342 1346 1347 1349 1352 1354 1357 1363 1368 1374 1377 1380 1382 1385 1386 1386 1392 1386 1382 1382 1385 1389 1393 1397 1401 1404 1408 1412 1417 1422 1428 1434 1438 1442 1447 1450 1453
1320 1322 1323 1324 1323 1323 1322 1323 1324 1324 1325 1325 1328 1332 1335 1337 1334 1335 1335 1336 1341 1345 1351 1356 1362 1366 1371 1374 1376 1380 1385 1384 1392 1390 1382 1377 1379 1383 1388 1393 1397 1401 1406 1409 1414 1419 1425 1430 1435 1439 1443 1446 1449 1452
1322 1324 1325 1326 1324 1323 1324 1324 1325 1326 1326 1328 1330 1334 1334 1333 1333 1334 1335 1338 1343 1347 1351 1358 1364 1366 1370 1373 1375 1379 1385 1386 1382 1378 1373 1372 1377 1382 1387 1392 1397 1401 1406 1411 1416 1421 1426 1430 1435 1439 1443 1447 1450 1453
1324 1325 1326 1326 1325 1324 1324 1324 1324 1325 1328 1332 1336 1336 1336 1335 1338 1338 1340 1342 1346 1350 1353 1356 1363 1368 1370 1370 1371 1375 1375 1381 1378 1374 1373 1374 1378 1384 1388 1394 1399 1404 1409 1413 1419 1423 1428 1432 1435 1439 1443 1447 1450 1453
1327 1327 1327 1326 1324 1322 1323 1324 1326 1330 1334 1338 1343 1342 1341 1343 1344 1345 1346 1348 1350 1352 1356 1357 1363 1365 1369 1371 1371 1373 1376 1376 1374 1374 1374 1377 1379 1384 1390 1396 1402 1407 1411 1416 1421 1425 1429 1433 1436 1439 1443 1447 1450 1453
1329 1328 1327 1326 1326 1326 1324 1326 1331 1338 1345 1348 1348 1348 1348 1348 1349 1350 1352 1353 1354 1353 1355 1360 1363 1368 1374 1374 1379 1377 1377 1377 1376 1376 1377 1379 1384 1390 1395 1400 1405 1410 1414 1419 1423 1426 1430 1433 1436 1440 1443 1447 1450 1453
1330 1329 1328 1327 1325 1325 1329 1335 1337 1346 1352 1352 1352 1351 1352 1354 1355 1354 1355 1355 1356 1357 1360 1366 1373 1376 1378 1379 1378 1378 1378 1378 1378 1379 1381 1384 1390 1394 1399 1404 1408 1413 1417 1420 1424 1427 1430 1434 1437 1440 1443 1446 1448 1452
1330 1330 1328 1326 1326 1327 1335 1343 1345 1349 1354 1357 1356 1356 1357 1360 1359 1358 1357 1357 1357 1361 1370 1379 1385 1386 1384 1383 1381 1380 1379 1378 1379 1382 1385 1390 1395 1399 1403 1407 1410 1414 1418 1421 1425 1428 1431 1434 1437 1440 1443 1446 1449 1451
1332 1331 1330 1330 1329 1333 1342 1347 1351 1355 1357 1359 1360 1360 1363 1363 1363 1362 1363 1364 1366 1379 1386 1390 1390 1389 1387 1386 1384 1383 1383 1384 1384 1386 1389 1393 1398 1403 1406 1409 1412 1415 1418 1421 1424 1428 1431 1434 1437 1440 1443 1446 1449 1452
1332 1332 1331 1332 1335 1341 1348 1353 1355 1358 1361 1363 1363 1364 1367 1368 1369 1370 1372 1374 1385 1392 1392 1393 1392 1391 1390 1389 1388 1389 1390 1391 1392 1394 1396 1399 1400 1404 1407 1410 1413 1416 1419 1423 1425 1428 1431 1434 1436 1439 1442 1445 1447 1450
1334 1334 1335 1337 1341 1347 1358 1357 1358 1362 1365 1367 1367 1370 1372 1372 1374 1375 1382 1389 1395 1397 1396 1395 1395 1394 1394 1393 1393 1393 1394 1395 1396 1397 1399 1402 1404 1407 1409 1412 1415 1417 1420 1423 1426 1429 1431 1433 1435 1438 1440 1443 1445 1447
1338 1339 1342 1345 1349 1357 1359 1361 1363 1366 1368 1371 1374 1378 1378 1376 1377 1380 1389 1396 1399 1399 1398 1398 1398 1398 1398 1397 1397 1397 1397 1397 1398 1399 1401 1403 1405 1407 1410 1412 1414 1417 1419 1422 1424 1426 1429 1431 1434 1436 1438 1440 1443 1445
1343 1353 1353 1357 1357 1360 1365 1368 1369 1369 1377 1377 1380 1383 1380 1378 1384 1389 1394 1400 1400 1400 1399 1400 1400 1400 1400 1400 1400 1400 1400 1400 1401 1401 1403 1405 1406 1407 1409 1410 1412 1414 1416 1418 1420 1423 1425 1428 1431 1433 1436 1438 1441 1444
1358 1361 1362 1363 1363 1364 1369 1373 1374 1375 1377 1381 1381 1380 1380 1385 1394 1398 1400 1401 1402 1401 1401 1401 1401 1401 1401 1400 1401 1401 1401 1402 1403 1403 1404 1405 1405 1405 1406 1408 1410 1412 1414 1416 1418 1419 1422 1424 1427 1430 1432 1435 1438 1441
1367 1366 1364 1364 1364 1364 1367 1368 1370 1372 1379 1383 1382 1383 1388 1402 1405 1402 1402 1402 1402 1402 1403 1403 1402 1402 1402 1401 1401 1401 1401 1402 1403 1404 1404 1405 1405 1406 1407 1408 1409 1411 1412 1413 1415 1416 1419 1421 1424 1426 1429 1432 1435 1437
1367 1367 1369 1368 1367 1367 1370 1373 1375 1377 1378 1377 1379 1392 1399 1401 1403 1403 1402 1402 1402 1403 1404 1404 1403 1403 1403 1403 1402 1402 1402 1402 1402 1403 1403 1404 1405 1405 1406 1407 1408 1409 1410 1411 1413 1415 1417 1419 1422 1424 1427 1429 1431 1434
1370 1369 1369 1371 1371 1372 1375 1377 1377 1378 1379 1379 1386 1395 1399 1401 1403 1402 1403 1402 1403 1404 1404 1404 1404 1404 1403 1403 1403 1403 1402 1402 1402 1403 1403 1404 1404 1405 1406 1406 1407 1408 1409 1409 1411 1413 1416 1418 1419 1422 1424 1427 1429 1431
1373 1371 1371 1374 1377 1379 1378 1378 1378 1379 1380 1381 1384 1393 1398 1402 1403 1403 1404 1404 1404 1404 1404 1405 1404 1404 1403 1404 1404 1403 1403 1403 1402 1403 1403 1403 1403 1403 1404 1405 1406 1406 1407 1408 1409 1411 1413 1415 1417 1419 1421 1423 1425 1427
1374 1373 1374 1376 1378 1379 1380 1380 1380 1381 1382 1384 1386 1389 1395 1401 1404 1404 1404 1404 1404 1404 1405 1405 1405 1404 1404 1404 1404 1404 1404 1404 1403 1403 1403 1402 1402 1402 1403 1403 1404 1405 1406 1407 1408 1410 1412 1413 1415 1416 1418 1421 1423 1425
1375 1375 1376 1378 1379 1380 1381 1381 1382 1383 1387 1389 1393 1395 1399 1401 1403 1404 1404 1404 1404 1404 1404 1405 1405 1405 1405 1405 1405 1405 1405 1404 1403 1402 1402 1401 1401 1401 1401 1402 1402 1403 1404 1405 1406 1408 1410 1412 1413 1415 1417 1419 1421 1423
1377 1376 1377 1378 1379 1380 1381 1382 1383 1387 1389 1391 1394 1396 1397 1400 1403 1405 1404 1404 1404 1404 1404 1404 1404 1404 1405 1405 1405 1405 1404 1404 1403 1403 1402 1401 1400 1400 1401 1401 1402 1402 1403 1404 1406 1407 1409 1410 1412 1414 1415 1417 1419 1421
Wind_Speed
16 17 17 17 18 20 22 24 27 29 31 32 34 36 36 37 36 36 41 39 44 21 23 26 32 24 16 23 9 6 3 3 0 7 5 2 2 5 4 5 6 7 7 4 5 5 8 6 1 6 3 4 14 21
19 20 20 20 21 23 24 26 27 30 34 36 38 40 41 44 45 41 42 41 39 24 14 27 43 35 38 29 24 16 8 6 12 5 1 2 3 1 2 3 2 4 6 5 7 5 2 3 4 4 10 20 17 28
20 20 20 20 21 25 27 29 31 36 43 44 42 42 44 46 45 49 49 37 36 33 17 28 20 37 36 34 29 18 14 18 19 8 1 2 3 3 4 4 2 3 5 3 2 2 2 9 11 12 18 22 23 26
17 18 20 23 25 27 30 37 40 35 30 26 25 26 26 28 33 53 55 48 42 17 8 14 19 41 22 30 40 38 31 17 10 11 4 2 3 5 4 3 5 5 3 5 2 2 12 10 15 23 27 27 28 24
18 20 21 22 26 34 32 25 21 22 25 29 31 31 31 30 27 44 53 50 49 33 6 7 18 22 19 39 28 36 30 27 18 4 3 2 2 0 1 0 3 9 7 6 6 15 6 10 22 26 29 23 22 25
18 19 19 27 29 17 12 17 23 26 29 29 29 32 33 33 27 37 13 47 49 51 8 1 7 13 31 28 40 34 34 32 23 11 5 3 4 9 3 3 5 19 14 14 8 23 10 26 25 19 23 25 24 23
16 18 26 19 8 10 13 11 10 12 18 20 20 26 39 36 42 30 13 11 59 44 11 4 3 5 16 19 23 23 23 16 20 10 6 3 3 5 2 7 4 8 10 14 22 23 22 29 22 22 27 26 23 22
16 22 12 5 8 8 12 6 7 4 2 5 5 10 26 40 39 27 5 4 49 37 13 4 3 5 17 8 6 12 10 12 9 8 5 4 5 4 5 5 5 9 17 23 28 20 33 28 27 29 28 27 25 24
18 6 5 8 3 9 15 13 8 13 18 14 14 21 32 30 18 21 14 33 44 14 4 3 7 4 12 5 7 5 6 2 5 3 4 9 3 6 5 9 18 25 19 24 17 18 33 32 34 32 29 25 23 23
3 5 8 2 3 13 18 14 6 5 15 9 7 7 7 16 35 34 29 13 10 8 6 2 5 4 12 4 3 6 5 3 3 4 9 3 3 9 14 13 20 24 24 32 34 23 31 34 36 32 26 22 19 21
6 8 7 6 4 15 10 20 16 14 12 7 6 15 52 45 27 6 6 5 5 3 5 6 5 5 6 3 3 4 3 3 3 3 4 2 3 2 14 20 23 19 29 23 22 28 33 40 37 32 26 22 20 19
9 10 9 8 8 10 17 15 18 21 21 19 23 25 13 4 4 4 3 3 2 5 4 3 6 7 7 5 3 4 2 2 3 7 3 2 2 13 18 21 20 24 28 21 20 33 33 34 30 28 26 23 20 17
11 10 11 6 7 5 12 8 11 13 17 14 7 2 1 0 5 5 5 3 4 5 8 7 5 6 5 4 3 2 3 3 6 1 3 3 10 22 24 25 24 25 24 24 26 30 30 28 25 23 23 20 18 17
12 11 7 6 6 8 7 3 5 6 0 3 2 4 3 2 2 1 2 4 5 13 20 18 5 3 3 2 2 4 2 2 2 3 5 3 18 28 28 28 30 26 25 27 29 28 27 25 25 22 19 18 18 18
13 13 5 4 8 5 6 7 2 0 3 3 3 2 3 2 2 3 10 14 21 28 21 13 6 4 2 3 1 3 2 3 5 4 2 13 28 33 33 31 29 27 28 28 29 29 28 26 24 23 19 17 17 18
12 9 4 6 6 5 8 4 2 4 4 4 6 2 5 5 7 14 19 20 21 23 12 6 3 2 1 3 2 3 5 5 3 2 7 24 32 33 32 29 28 27 28 29 29 27 25 23 21 20 20 18 18 18
9 2 6 9 11 4 6 8 5 7 6 5 4 10 8 8 6 8 14 12 14 3 2 2 3 2 2 2 2 1 1 1 2 2 12 25 35 34 32 30 28 27 28 28 26 24 21 20 20 20 21 21 19 18
3 2 5 7 3 11 16 7 6 7 7 9 3 8 18 12 6 9 7 12 6 2 3 2 4 3 2 1 1 0 3 3 5 9 15 23 31 30 29 28 26 26 26 25 23 22 21 20 19 19 20 22 23 22
2 3 5 6 4 3 5 7 7 5 6 3 7 10 12 11 18 14 14 15 12 9 6 5 4 3 2 3 2 1 5 5 8 11 16 21 26 27 26 25 24 24 23 22 21 20 19 18 17 19 21 22 22 21
2 4 9 5 5 6 6 6 5 7 3 4 10 12 7 6 12 17 15 15 15 7 6 4 3 5 5 8 3 2 4 9 17 21 21 23 25 25 24 22 21 21 21 21 20 19 20 19 18 18 19 19 20 19
2 4 6 10 14 10 7 4 7 5 4 5 6 6 6 13 12 12 14 12 11 6 3 8 11 10 8 8 7 6 9 12 17 24 27 25 23 20 19 18 19 20 20 21 21 20 19 17 16 18 17 16 15 12
6 4 6 9 7 6 8 9 6 4 4 3 5 6 6 3 6 10 8 13 7 8 6 8 11 11 10 10 9 9 9 7 8 11 17 19 21 20 19 18 18 18 17 17 18 17 16 16 15 16 16 16 15 15
6 6 6 7 6 6 4 5 4 5 3 2 4 4 4 4 5 5 6 6 5 9 11 9 8 7 10 10 9 9 8 5 4 4 9 13 12 13 15 15 14 15 15 16 15 14 13 14 15 15 16 17 18 18
8 6 7 6 7 1 3 4 4 4 3 3 3 3 3 4 4 5 3 4 7 9 9 9 11 10 8 9 9 8 7 7 6 5 5 9 11 11 11 12 14 14 12 11 14 15 15 16 16 16 16 18 19 19
5 8 5 5 5 4 4 3 3 3 2 1 3 2 2 4 3 3 2 3 10 10 9 6 6 8 9 8 6 6 6 5 5 4 4 2 6 10 11 11 12 13 14 16 16 17 17 17 19 17 17 17 18 16
6 7 4 1 3 3 2 2 1 3 3 3 1 0 2 3 4 3 2 3 7 8 11 9 6 4 6 7 5 4 2 2 2 2 1 1 4 6 11 13 15 16 16 15 15 17 18 17 19 18 17 17 16 15
4 3 4 5 2 3 4 5 4 4 3 3 2 2 3 4 2 0 2 5 5 6 7 7 5 3 4 5 4 3 3 0 1 3 3 1 0 1 1 1 4 7 10 12 15 16 16 16 15 16 15 15 15 14
4 6 3 7 6 6 3 3 3 2 1 0 4 4 4 4 2 1 2 2 2 2 1 1 2 3 4 4 4 3 2 1 2 3 4 4 3 4 5 5 5 6 6 8 11 13 14 13 12 12 13 13 13 14
3 5 2 4 4 6 5 2 1 2 2 3 4 2 3 4 3 3 4 5 6 3 0 1 1 2 3 4 5 4 3 3 3 3 3 4 6 8 7 7 8 8 8 9 12 13 12 12 11 10 9 10 11 13
6 7 3 3 3 2 3 3 3 5 5 9 10 9 10 9 8 6 5 5 4 4 5 5 5 4 4 4 4 4 3 3 3 4 5 6 7 6 7 8 9 8 6 8 12 13 13 12 12 13 14 13 14 14
6 3 3 4 2 3 9 11 13 11 8 9 10 11 11 8 7 7 6 4 3 3 3 2 2 3 3 3 3 2 4 5 4 3 4 3 2 2 4 6 7 8 8 8 10 11 13 13 13 12 13 13 11 11
7 4 3 2 1 7 11 4 3 4 4 4 4 5 6 4 3 3 6 4 1 1 3 3 2 1 1 3 4 4 6 7 8 7 6 4 7 5 4 4 5 8 9 9 10 11 11 10 10 11 10 11 11 11
2 2 3 3 3 3 3 3 3 4 5 3 4 3 3 3 4 2 3 4 3 3 1 1 3 3 2 1 1 4 5 5 4 4 4 3 1 3 4 4 4 5 6 7 7 8 8 9 10 10 11 12 13 12
Wind_Direction
233 232 239 242 247 251 251 248 249 247 249 248 246 245 242 236 230 225 230 228 211 226 233 224 220 217 205 212 218 215 203 209 274 256 194 203 194 213 190 194 183 178 170 190 199 212 263 195 240 187 186 75 132 131
236 241 248 255 260 260 257 260 258 257 257 255 250 247 243 242 241 233 226 227 226 216 234 245 242 237 229 224 213 216 227 172 185 263 186 130 173 159 130 238 158 215 188 185 192 213 338 309 282 263 156 137 129 134
242 248 255 261 264 266 265 267 264 262 261 259 255 250 243 236 227 221 217 213 213 223 225 239 242 227 227 225 228 224 238 239 249 291 277 222 192 144 169 224 232 263 186 197 106 13 51 76 103 133 144 135 142 140
246 253 259 264 270 273 269 268 269 268 259 252 245 242 234 230 232 216 210 207 211 209 224 252 251 226 220 227 225 231 236 234 252 302 269 213 222 196 200 160 173 208 166 143 89 143 91 94 128 133 127 129 131 134
254 263 269 274 274 273 279 272 258 255 254 254 248 240 234 225 217 201 203 209 203 189 188 209 232 231 233 218 221 227 232 232 235 268 221 233 218 210 229 349 233 177 213 183 215 178 131 149 144 142 131 134 144 145
265 270 276 273 283 287 263 259 263 265 264 257 245 240 228 217 200 183 178 203 204 204 258 359 234 216 219 217 220 226 228 231 228 219 238 218 204 170 235 243 244 212 209 206 163 163 165 152 147 149 143 151 147 146
271 276 278 288 275 259 286 281 273 293 286 258 249 239 214 202 190 175 170 211 199 191 180 234 252 204 195 194 205 215 227 214 216 218 227 238 241 217 235 262 257 227 212 178 156 143 125 154 152 160 151 148 146 141
277 280 286 242 240 315 359 321 298 22 86 122 130 157 175 183 181 184 138 144 182 175 186 208 155 151 176 163 132 178 149 185 205 209 179 199 182 205 251 203 225 177 159 154 149 177 167 159 154 155 154 151 145 142
285 276 240 213 275 0 13 7 4 127 111 90 113 140 140 155 157 161 149 159 164 175 176 150 152 175 162 111 138 134 157 160 210 214 183 174 173 221 226 194 180 170 158 152 149 153 157 158 158 157 157 157 153 147
264 178 193 188 354 18 4 347 76 135 93 78 59 106 111 129 137 137 138 153 166 193 208 169 131 135 156 132 121 130 175 173 186 213 150 217 241 248 270 213 187 170 172 161 134 128 148 155 163 163 165 165 163 154
172 171 131 61 40 11 35 75 52 80 74 50 60 89 121 127 125 132 136 152 155 175 190 157 144 125 156 121 141 177 168 167 192 187 165 218 253 144 157 161 169 179 176 171 176 170 171 169 167 165 165 166 163 158
148 148 114 67 43 34 105 77 50 81 83 88 116 118 101 104 107 105 126 134 156 185 181 156 120 115 124 123 114 179 150 155 213 142 162 231 232 151 163 159 161 169 170 169 180 170 171 169 169 167 166 166 164 158
166 158 115 59 40 92 128 89 44 52 66 77 96 103 130 91 72 143 157 135 138 164 163 146 119 114 121 157 95 123 150 182 120 107 216 221 157 157 164 162 160 167 173 172 167 168 166 166 168 172 168 165 164 165
159 157 127 44 36 126 166 135 31 58 144 87 63 23 87 354 79 156 132 145 141 145 130 125 102 109 148 91 153 123 227 98 105 209 231 191 167 163 165 166 161 161 169 168 165 164 165 166 166 170 174 170 172 170
137 146 105 18 33 98 173 194 28 148 75 73 43 39 16 342 39 145 120 117 126 131 125 96 62 84 45 98 48 111 86 216 204 225 223 162 167 168 166 165 165 164 166 166 164 163 163 164 167 166 169 171 171 169
131 117 72 32 7 118 162 196 173 87 62 57 42 32 31 70 70 86 119 119 129 127 124 116 112 87 157 142 145 210 155 212 262 283 145 165 168 170 167 167 165 162 163 162 161 163 165 168 169 168 167 170 169 172
118 123 111 44 22 66 151 122 65 52 45 37 22 39 63 56 50 66 100 120 140 105 107 112 82 162 101 101 130 351 243 328 336 132 168 172 173 170 167 164 162 162 162 163 165 168 170 168 172 175 173 167 167 162
134 69 358 355 26 77 76 59 78 67 59 39 47 37 61 67 70 82 96 138 157 51 56 68 93 54 49 67 285 41 86 83 132 163 172 175 174 168 166 164 164 166 168 170 173 172 176 178 181 181 178 172 169 169
117 12 342 354 89 95 65 47 48 81 51 49 46 61 66 67 64 82 92 103 116 95 97 55 59 37 28 7 1 102 163 184 150 146 154 163 168 167 164 165 166 170 174 177 180 184 184 186 187 186 184 184 182 179
60 10 15 112 90 74 69 41 56 76 55 36 38 50 61 48 61 62 73 76 74 59 46 42 25 360 347 5 15 172 154 150 147 140 141 152 156 158 162 168 174 177 181 184 186 186 184 184 188 192 193 191 188 188
26 54 98 103 73 71 82 61 62 68 71 66 23 43 58 49 42 40 41 46 60 38 68 54 50 59 57 58 63 87 118 137 148 153 151 152 159 167 171 176 181 183 187 187 188 188 194 198 196 191 193 193 192 195
48 73 63 53 70 74 68 43 82 81 66 54 42 39 44 29 19 22 50 50 61 41 53 49 49 55 64 65 76 88 100 120 129 155 165 170 172 179 184 186 186 190 194 198 198 201 197 196 197 197 195 192 193 191
39 41 55 45 74 56 58 37 67 35 62 350 32 34 19 18 27 44 74 61 77 61 72 58 49 64 68 76 84 89 90 88 131 158 184 191 200 199 197 201 205 207 205 204 205 206 204 203 200 198 197 199 199 196
38 49 34 44 50 95 78 51 66 72 67 50 53 27 358 355 28 68 78 71 66 64 60 51 56 72 82 80 76 79 74 68 87 114 161 190 196 202 210 218 220 221 215 219 213 207 205 205 202 201 202 205 204 204
59 12 26 2 41 64 49 26 8 61 83 72 80 0 316 10 62 62 78 76 56 58 57 50 50 50 59 64 69 58 61 59 70 88 121 152 208 215 218 213 204 205 208 210 209 208 209 208 207 212 211 209 209 214
69 20 63 14 345 95 184 87 145 149 107 55 27 94 65 71 62 63 58 54 53 41 34 30 24 34 45 43 44 45 80 58 29 27 37 319 325 263 229 221 209 209 212 214 214 214 213 215 214 215 215 217 218 223
53 348 35 31 56 95 65 79 96 91 91 135 212 63 71 76 162 12 94 62 67 44 47 28 37 40 28 26 33 31 38 153 327 333 331 300 68 126 130 178 214 231 237 234 223 212 214 216 215 217 218 220 222 225
46 25 74 350 55 37 108 56 64 75 185 184 85 50 114 155 179 71 67 46 100 67 166 218 40 44 33 22 16 358 350 297 283 299 299 270 228 204 199 202 205 221 227 219 212 211 206 207 215 220 222 223 224 227
40 0 27 29 46 46 43 101 170 69 26 90 108 105 104 83 69 105 84 93 141 157 33 80 213 310 325 328 331 339 342 312 299 317 319 303 270 249 235 226 233 244 247 227 206 205 207 208 209 210 213 218 226 230
7 9 78 59 76 24 18 39 100 115 94 104 107 108 103 107 87 100 109 126 139 128 99 81 68 56 60 45 42 37 32 20 5 336 318 306 294 282 249 240 239 244 245 214 198 198 206 211 208 217 223 217 216 218
352 349 73 62 98 81 106 116 103 97 88 76 91 114 121 131 114 84 84 94 114 138 151 155 87 61 47 40 42 41 42 34 20 331 289 301 299 192 198 207 214 220 224 217 206 207 210 211 213 219 211 212 219 215
1 30 119 102 117 141 147 168 78 78 83 73 91 100 117 126 97 117 38 56 30 266 247 244 233 220 62 59 45 23 2 351 343 338 331 286 238 234 221 226 227 219 212 214 217 215 216 215 215 207 211 204 197 197
353 62 85 98 118 165 165 134 90 88 79 93 102 109 86 92 102 92 26 25 24 32 46 129 165 162 140 132 334 337 343 354 7 8 14 21 171 169 169 177 176 178 182 183 186 189 196 201 201 202 206 204 197 198